Istanbul, Turkey

12:41 AM +03 on February 25, 2017 (GMT +0300)
Ataturk

Weather History for LTBA - May, 2012

Change the Weather History Date:

Monday, May 14, 2012

  Actual Average Record
Temperature  
Mean Temperature 62 °F -  
Max Temperature 68 °F 73 °F 79 °F (2014)
Min Temperature 57 °F 58 °F 50 °F (2001)
Degree Days  
Heating Degree Days 2    
Growing Degree Days 12 (Base 50)    
Moisture  
Dew Point 51 °F    
Average Humidity 67    
Maximum Humidity 100    
Minimum Humidity 47    
Precipitation  
Precipitation 0.00 in - - ()
Sea Level Pressure  
Sea Level Pressure 29.89 in    
Wind  
Wind Speed 13 mph ()    
Max Wind Speed 24 mph    
Max Gust Speed -    
Visibility 6.2 miles    
Events      
Averages and records for this station are not official NWS values.
T = Trace of Precipitation, MM = Missing Value Source: Averaged Metar Reports

Daily Weather History Graph

Daily Weather History Graph

Search for Another Location

Airport or City:

Trip Planner

Search our weather history database for the weather conditions in past years. The results will help you decide how hot, cold, wet, or windy it might be!

Date:

Astronomy

May. 14, 2012 Rise Set
Actual Time 5:47 AM EEST 8:14 PM EEST
Civil Twilight 5:16 AM EEST 8:46 PM EEST
Nautical Twilight 4:38 AM EEST 9:24 PM EEST
Astronomical Twilight 3:54 AM EEST 10:08 PM EEST
Moon 2:15 AM EEST (5/14) 2:13 PM EEST (5/14)
Length of Visible Light 15h 29m
Length of Day
14h 27m
Waning Crescent, 35% of the Moon is Illuminated
May 14
Waning Crescent
May 21
New
May 28
First Quarter
Jun 4
Full
Jun 11
Last Quarter

Hourly Weather History & Observations

Time (EEST) Temp. Dew Point Humidity Pressure Visibility Wind Dir Wind Speed Gust Speed Precip Events Conditions
12:20 AM 62.6 °F 62.6 °F 100% 29.86 in 6.2 mi North 9.2 mph - N/A   Mostly Cloudy
12:50 AM 64.4 °F 62.6 °F 94% 29.86 in 6.2 mi North 9.2 mph - N/A   Mostly Cloudy
1:20 AM 64.4 °F 60.8 °F 88% 29.86 in 6.2 mi North 9.2 mph - N/A   Mostly Cloudy
1:50 AM 64.4 °F 59.0 °F 83% 29.86 in 6.2 mi North 12.7 mph - N/A   Mostly Cloudy
2:20 AM 62.6 °F 55.4 °F 77% 29.83 in 6.2 mi North 19.6 mph - N/A   Scattered Clouds
2:50 AM 62.6 °F 51.8 °F 68% 29.83 in 6.2 mi North 24.2 mph - N/A   Mostly Cloudy
3:00 AM 62 °F 52 °F 62% 29.85 in 6 mi North 24.2 mph - -   Mostly Cloudy
3:20 AM 60.8 °F 51.8 °F 72% 29.83 in 6.2 mi North 24.2 mph - N/A   Scattered Clouds
3:50 AM 60.8 °F 51.8 °F 72% 29.86 in 6.2 mi North 17.3 mph - N/A   Scattered Clouds
4:20 AM 60.8 °F 51.8 °F 72% 29.86 in 6.2 mi North 16.1 mph - N/A   Mostly Cloudy
4:50 AM 60.8 °F 51.8 °F 72% 29.86 in 6.2 mi North 16.1 mph - N/A   Mostly Cloudy
5:20 AM 60.8 °F 51.8 °F 72% 29.86 in 6.2 mi North 15.0 mph - N/A   Mostly Cloudy
5:50 AM 60.8 °F 51.8 °F 72% 29.89 in 6.2 mi North 17.3 mph - N/A   Mostly Cloudy
6:20 AM 60.8 °F 50.0 °F 68% 29.89 in 6.2 mi North 15.0 mph - N/A   Mostly Cloudy
7:20 AM 59.0 °F 50.0 °F 72% 29.92 in 6.2 mi North 21.9 mph - N/A   Mostly Cloudy
7:50 AM 59.0 °F 51.8 °F 77% 29.92 in 6.2 mi North 18.4 mph - N/A   Mostly Cloudy
8:20 AM 59.0 °F 53.6 °F 82% 29.92 in 6.2 mi North 20.7 mph - N/A   Mostly Cloudy
8:50 AM 59.0 °F 53.6 °F 82% 29.92 in 6.2 mi North 16.1 mph - N/A   Mostly Cloudy
9:00 AM 60 °F 52 °F 67% 29.94 in 6 mi North 16.1 mph - -   Mostly Cloudy
9:20 AM 60.8 °F 51.8 °F 72% 29.92 in 6.2 mi North 18.4 mph - N/A   Mostly Cloudy
9:50 AM 60.8 °F 51.8 °F 72% 29.95 in 6.2 mi North 21.9 mph - N/A   Mostly Cloudy
10:20 AM 62.6 °F 50.0 °F 63% 29.95 in 6.2 mi North 21.9 mph - N/A   Mostly Cloudy
10:50 AM 62.6 °F 50.0 °F 63% 29.92 in 6.2 mi North 24.2 mph - N/A   Mostly Cloudy
11:20 AM 66.2 °F 51.8 °F 60% 29.95 in 6.2 mi NE 13.8 mph - N/A   Mostly Cloudy
11:50 AM 64.4 °F 51.8 °F 64% 29.95 in 6.2 mi North 13.8 mph - N/A   Mostly Cloudy
12:20 PM 64.4 °F 50.0 °F 59% 29.95 in 6.2 mi North 9.2 mph - N/A   Mostly Cloudy
12:50 PM 64.4 °F 50.0 °F 59% 29.95 in 6.2 mi NE 9.2 mph - N/A   Mostly Cloudy
1:20 PM 64.4 °F 50.0 °F 59% 29.95 in 6.2 mi North 11.5 mph - N/A   Scattered Clouds
1:50 PM 66.2 °F 50.0 °F 56% 29.92 in 6.2 mi Variable 8.1 mph - N/A   Scattered Clouds
2:20 PM 66.2 °F 50.0 °F 56% 29.92 in 6.2 mi ENE 8.1 mph - N/A   Scattered Clouds
2:50 PM 68.0 °F 51.8 °F 56% 29.92 in 6.2 mi NNE 10.4 mph - N/A   Scattered Clouds
3:00 PM 67 °F 51 °F 47% 29.92 in 6 mi NNE 10.4 mph - -   Partly Cloudy
3:20 PM 66.2 °F 51.8 °F 60% 29.92 in 6.2 mi Variable 6.9 mph - N/A   Scattered Clouds
3:50 PM 66.2 °F 50.0 °F 56% 29.92 in 6.2 mi North 11.5 mph - N/A   Scattered Clouds
4:20 PM 64.4 °F 50.0 °F 59% 29.89 in 6.2 mi NNE 13.8 mph - N/A   Scattered Clouds
4:50 PM 64.4 °F 50.0 °F 59% 29.89 in 6.2 mi NNE 11.5 mph - N/A   Scattered Clouds
5:20 PM 62.6 °F 50.0 °F 63% 29.89 in 6.2 mi NNE 11.5 mph - N/A   Scattered Clouds
5:50 PM 62.6 °F 50.0 °F 63% 29.89 in 6.2 mi Variable 12.7 mph - N/A   Scattered Clouds
6:20 PM 60.8 °F 50.0 °F 68% 29.89 in 6.2 mi NE 11.5 mph - N/A   Scattered Clouds
6:50 PM 60.8 °F 50.0 °F 68% 29.89 in 6.2 mi NE 12.7 mph - N/A   Partly Cloudy
7:20 PM 60.8 °F 48.2 °F 63% 29.89 in 6.2 mi ENE 10.4 mph - N/A   Scattered Clouds
7:50 PM 60.8 °F 46.4 °F 59% 29.89 in 6.2 mi NNE 10.4 mph - N/A   Scattered Clouds
8:20 PM 60.8 °F 46.4 °F 59% 29.89 in 6.2 mi NE 12.7 mph - N/A   Scattered Clouds
8:50 PM 60.8 °F 48.2 °F 63% 29.89 in - Variable 6.9 mph - N/A   Clear
9:00 PM 61 °F 48 °F 53% 29.90 in 6 mi NE 6.9 mph - -  
9:20 PM 60.8 °F 50.0 °F 68% 29.89 in - Variable 6.9 mph - N/A   Clear
9:50 PM 59.0 °F 48.2 °F 67% 29.89 in - East 8.1 mph - N/A   Clear
10:20 PM 59.0 °F 48.2 °F 67% 29.86 in - NE 6.9 mph - N/A   Clear
10:50 PM 59.0 °F 48.2 °F 67% 29.86 in - NE 9.2 mph - N/A   Clear
11:20 PM 59.0 °F 48.2 °F 67% 29.86 in - NE 8.1 mph - N/A   Clear
11:50 PM 57.2 °F 48.2 °F 72% 29.83 in - NE 6.9 mph - N/A   Clear